Date,TemperatureHighF,TemperatureAvgF,TemperatureLowF,DewpointHighF,DewpointAvgF,DewpointLowF,HumidityHigh,HumidityAvg,HumidityLow,PressureMaxIn,PressureMinIn,WindSpeedMaxMPH,WindSpeedAvgMPH,GustSpeedMaxMPH,PrecipitationSumIn
2013-1-1,2,0,-1,-5,-7,-8,74,73,73,30.23,30.19,0,0,0,0.00
2013-1-2,15,8,4,5,0,-3,73,69,63,30.50,30.37,2,1,8,0.00
2013-1-3,24,11,0,5,0,-7,72,60,38,30.55,30.32,4,1,9,0.00
2013-1-4,27,6,-7,6,-4,-14,74,62,36,30.50,30.21,6,1,12,0.00
2013-1-5,30,10,-3,9,-1,-10,73,63,33,30.53,30.19,4,0,8,0.00
2013-1-6,35,16,4,15,5,-2,76,63,33,30.19,29.86,2,0,6,0.01
2013-1-9,38,37,36,16,16,16,44,42,41,29.63,29.47,14,10,24,0.03
2013-1-10,46,31,17,27,17,13,88,60,28,29.48,29.10,19,8,36,0.02
2013-1-11,17,13,10,13,8,5,83,81,79,29.82,29.23,10,5,21,0.00
2013-1-12,11,6,-5,6,0,-12,80,76,70,30.10,29.82,7,2,14,0.00
2013-1-13,8,-2,-12,2,-8,-20,77,72,66,30.34,30.06,3,0,8,0.00
2013-1-14,8,-4,-18,2,-11,-27,76,70,63,30.49,30.29,8,1,13,0.00
2013-1-15,17,10,3,10,3,-4,76,73,69,30.52,30.34,10,2,16,0.00
2013-1-16,23,14,5,14,7,-1,78,75,68,30.59,30.39,7,1,12,0.06
2013-1-17,26,10,-3,16,3,-10,80,73,62,30.70,30.41,4,0,7,0.04
2013-1-18,29,13,-2,16,5,-9,78,70,55,30.54,30.29,5,0,8,0.04
2013-1-19,37,15,1,15,6,-5,78,67,39,30.53,30.24,3,0,7,0.08
2013-1-20,35,15,-1,12,4,-7,75,64,34,30.49,30.22,5,1,12,0.02
2013-1-21,38,16,2,14,5,-4,75,62,31,30.47,30.18,5,0,12,0.02
2013-1-22,41,18,3,15,6,-3,76,61,29,30.40,30.11,2,0,5,0.02
2013-1-23,45,24,8,20,10,1,73,59,28,30.27,29.99,2,0,3,0.01
2013-1-24,38,33,23,34,27,15,88,79,66,30.03,29.86,1,0,7,0.10
2013-1-25,40,35,32,35,31,28,91,84,70,29.95,29.78,7,1,12,0.02
2013-1-26,41,34,26,32,28,22,87,77,64,29.78,29.46,6,1,8,0.02
2013-1-27,37,30,22,31,27,17,88,85,70,29.57,29.27,10,3,24,0.18
2013-1-28,21,18,12,17,14,6,86,83,80,29.81,29.54,8,3,14,0.02
2013-1-29,24,17,11,20,12,6,85,80,75,29.99,29.71,13,2,20,0.15
2013-1-30,23,22,19,17,16,14,82,78,75,29.99,29.93,10,4,17,0.15
2013-1-31,34,32,30,24,23,22,76,70,62,29.99,29.95,7,1,18,0.05
2013-2-1,39,30,21,25,20,13,81,68,52,30.16,29.94,11,2,21,0.16
2013-2-2,41,23,9,19,12,4,80,65,31,30.40,30.13,5,0,10,0.02
2013-2-3,42,26,17,18,12,7,79,59,26,30.13,29.85,7,1,12,0.00
2013-2-4,40,24,9,16,10,3,76,58,32,30.11,29.91,10,1,18,0.00
2013-2-5,46,30,17,21,14,9,72,54,27,29.95,29.57,5,0,8,0.00
2013-2-6,38,30,16,19,16,8,74,56,37,29.93,29.53,12,2,20,0.00
2013-2-7,44,23,7,11,6,0,77,54,17,30.09,29.71,8,1,12,0.00
2013-2-8,38,30,25,23,20,17,80,68,44,29.39,29.26,14,5,20,0.00
2013-2-9,28,23,19,19,17,14,83,77,64,29.58,29.32,8,2,16,0.02
2013-2-10,27,20,12,18,13,6,80,73,58,29.83,29.57,7,1,12,0.06
2013-2-11,25,13,4,10,5,-2,79,69,52,30.16,29.80,11,1,18,0.02
2013-2-12,26,16,2,15,7,-4,76,68,55,30.28,30.10,8,2,18,0.00
2013-2-13,32,27,18,21,18,12,79,68,57,30.13,29.92,10,3,20,0.00
2013-2-14,34,29,19,23,18,12,80,65,49,30.20,29.91,12,4,18,0.02
2013-2-15,21,20,19,14,13,12,76,74,74,30.20,30.17,1,0,3,0.02
2013-2-21,26,22,13,18,13,5,83,69,56,29.86,29.46,12,4,21,0.00
2013-2-22,26,18,12,17,10,5,80,71,54,29.97,29.83,13,2,21,0.01
2013-2-23,26,20,17,20,14,9,85,76,66,29.86,29.50,16,6,26,0.01
2013-2-24,26,18,7,14,11,0,82,72,54,30.16,29.74,9,2,18,0.03
2013-2-25,31,16,-1,13,4,-8,76,60,35,30.25,29.80,9,1,14,0.02
2013-2-26,25,20,8,17,12,1,82,72,59,30.21,29.75,13,4,22,0.01
2013-2-27,28,13,-1,9,1,-8,76,60,32,30.39,30.21,8,1,16,0.01
2013-2-28,37,22,5,17,7,-2,73,54,30,30.43,30.16,9,2,17,0.01
2013-3-1,44,35,25,27,23,14,80,60,46,30.31,30.08,10,3,18,0.01
2013-3-2,49,40,25,26,23,18,80,53,30,30.23,29.80,7,1,15,0.00
2013-3-3,38,33,28,33,27,21,87,80,72,29.79,29.57,9,1,16,0.37
2013-3-4,31,25,13,13,6,-1,71,46,28,30.11,29.68,9,3,17,0.34
2013-3-5,50,27,8,15,7,0,74,48,15,30.18,29.64,9,1,13,0.02
2013-3-6,52,39,25,29,16,12,81,41,21,29.66,29.34,16,4,26,0.04
2013-3-7,44,35,30,29,26,24,84,70,48,29.64,29.46,6,2,14,0.06
2013-3-8,41,35,31,31,28,26,87,78,58,29.56,29.32,10,2,14,0.04
2013-3-9,39,32,22,30,23,9,87,70,36,29.98,29.32,10,2,20,0.26
2013-3-10,43,29,15,20,14,9,80,56,30,30.16,29.96,10,3,21,0.02
2013-3-11,44,35,23,25,18,12,71,52,32,29.97,29.78,12,4,26,0.00
2013-3-12,48,40,31,30,27,24,76,60,40,29.96,29.78,9,3,17,0.00
2013-3-13,58,40,26,28,24,19,81,57,22,30.11,29.89,6,1,12,0.00
2013-3-14,65,44,27,28,22,10,75,49,12,30.05,29.73,7,1,13,0.00
2013-3-15,59,45,32,30,21,13,74,45,16,29.79,29.56,10,2,17,0.00
2013-3-16,49,39,28,30,20,12,76,50,23,29.66,29.55,11,3,20,0.00
2013-3-17,39,34,26,30,20,11,79,58,41,29.72,29.36,14,5,28,0.09
2013-3-18,41,32,24,19,13,9,71,48,28,29.81,29.69,11,3,22,0.01
2013-3-19,47,33,19,17,3,-21,63,35,6,29.96,29.76,6,2,13,0.01
2013-3-20,42,36,27,35,22,5,85,60,28,29.84,29.44,12,3,17,0.18
2013-3-21,44,30,19,33,20,7,87,70,35,29.78,29.26,17,7,28,0.42
2013-3-22,23,20,16,17,12,4,82,71,48,29.81,29.63,11,3,21,0.01
2013-3-23,24,18,8,17,10,0,81,71,44,30.10,29.80,11,3,17,0.08
2013-3-24,28,15,2,15,6,-4,76,68,50,30.17,30.03,8,1,12,0.02
2013-3-25,42,24,4,21,9,-2,78,56,30,30.14,29.77,6,1,13,0.07
2013-3-26,53,38,27,29,19,12,76,49,20,29.77,29.47,7,3,17,0.01
2013-3-27,57,39,23,28,22,15,84,56,19,29.77,29.56,6,1,10,0.00
2013-3-28,59,43,28,27,22,16,77,50,19,29.76,29.56,9,1,20,0.00
2013-3-29,58,45,34,33,26,21,75,51,26,29.83,29.63,9,2,17,0.00
2013-3-30,57,42,27,29,23,-100,79,53,23,29.91,29.74,10,2,18,0.00
2013-3-31,61,42,23,27,19,3,80,48,10,29.86,29.50,9,2,17,0.00
2013-4-1,48,41,33,35,32,23,85,71,43,29.57,29.43,18,2,26,0.38
2013-4-2,52,39,32,35,30,26,89,73,39,29.74,29.56,10,2,18,1.25
2013-4-3,57,41,28,36,28,21,87,64,24,29.87,29.70,7,2,16,0.02
2013-4-4,60,52,46,28,23,18,49,35,19,29.57,29.41,7,1,17,0.02
2013-4-5,52,43,32,37,29,21,84,58,33,29.73,29.34,12,3,21,0.52
2013-4-6,52,38,28,32,25,19,79,62,27,29.71,29.54,8,2,16,0.04
2013-4-7,52,42,29,32,26,18,84,57,27,29.60,29.14,10,2,20,0.04
2013-4-8,46,36,23,31,27,19,88,74,34,29.30,28.99,10,3,20,0.87
2013-4-9,26,20,15,19,12,8,86,71,51,30.00,29.30,11,7,26,0.20
2013-4-10,44,28,9,26,15,3,78,58,36,30.06,29.60,12,2,20,0.36
2013-4-11,47,38,33,34,29,25,89,70,47,29.63,29.52,10,3,16,0.18
2013-4-12,52,39,26,27,22,10,84,56,19,29.67,29.49,9,2,18,0.02
2013-4-13,49,38,30,32,26,15,83,63,30,29.49,29.16,15,3,20,0.30
2013-4-14,39,31,23,19,6,-3,70,37,19,29.57,29.38,10,5,21,0.14
2013-4-15,40,32,25,28,22,15,87,70,36,29.40,29.28,10,3,17,0.28
2013-4-16,33,29,25,23,18,11,85,65,43,29.70,29.27,10,4,18,0.04
2013-4-17,35,26,20,19,9,4,66,49,30,29.94,29.68,12,6,22,0.02
2013-4-18,38,32,19,12,6,-4,63,35,19,30.03,29.92,14,5,22,0.00
2013-4-19,45,34,21,31,19,9,80,56,36,30.01,29.62,13,3,24,0.18
2013-4-20,45,37,31,34,30,26,88,76,50,29.82,29.58,10,4,20,0.73
2013-4-21,55,41,24,30,23,19,85,55,25,29.85,29.54,10,3,21,0.02
2013-4-22,45,40,34,29,21,7,75,50,22,29.69,29.48,11,5,20,0.00
2013-4-26,60,52,35,17,12,8,48,23,13,29.87,29.80,11,3,17,0.00
2013-4-27,64,47,26,23,18,13,64,36,14,29.97,29.64,13,3,20,0.00
2013-4-28,66,50,31,26,23,20,67,38,18,29.69,29.42,14,3,21,0.00
2013-4-29,64,50,31,29,24,19,73,40,22,29.55,29.16,12,3,21,0.00
2013-4-30,54,44,34,29,13,-4,63,31,13,29.67,29.17,14,5,26,0.00
2013-5-1,42,32,25,23,10,-2,68,40,22,30.32,29.67,13,5,24,0.00
2013-5-2,55,37,17,20,11,2,73,40,13,30.43,30.01,9,2,20,0.00
2013-5-3,62,44,24,19,12,-1,67,35,8,30.04,29.50,8,2,17,0.00
2013-5-4,63,46,26,31,17,12,58,34,14,29.59,29.41,9,2,16,0.00
2013-5-5,64,50,34,30,26,20,70,43,19,29.55,29.36,12,3,20,0.00
2013-5-6,61,49,39,36,31,22,71,52,23,29.48,29.36,9,2,14,0.00
2013-5-7,57,47,35,40,33,25,88,61,31,29.55,29.40,12,2,20,0.04
2013-5-8,55,43,31,42,35,26,87,74,47,29.68,29.53,10,2,20,0.24
2013-5-9,65,49,32,44,29,17,92,57,16,29.79,29.54,15,3,26,0.12
2013-5-10,69,51,34,37,29,-100,81,49,17,29.77,29.63,10,2,20,0.02
2013-5-11,70,54,33,37,26,-100,81,43,13,29.92,29.69,10,2,18,0.00
2013-5-12,75,60,35,34,27,23,66,33,16,29.84,29.56,11,3,22,0.00
2013-5-13,81,63,41,34,29,22,65,35,12,29.70,29.39,9,2,17,0.00
2013-5-14,79,63,43,36,32,22,64,35,13,29.51,29.25,10,2,17,0.00
2013-5-15,73,56,45,41,34,27,70,48,18,29.41,29.22,11,3,20,0.00
2013-5-16,71,57,45,40,22,-100,71,41,21,29.34,29.12,12,3,20,0.00
2013-5-17,59,50,41,41,35,-100,83,64,35,29.44,29.22,10,2,20,0.03
2013-5-18,54,45,37,42,36,29,86,73,39,29.64,29.39,9,2,17,0.17
2013-5-19,54,44,35,39,34,30,85,70,42,29.66,29.54,12,4,22,0.14
2013-5-20,44,41,41,36,36,34,81,80,70,29.65,29.57,10,3,17,0.02
2013-5-21,41,41,41,36,36,36,81,81,81,29.65,29.65,3,3,3,0.01
2013-5-22,41,41,41,36,36,36,81,81,81,29.65,29.65,3,3,3,0.00
2013-5-23,41,41,41,36,36,36,81,81,81,29.65,29.65,3,3,3,0.00
2013-5-24,41,41,41,36,36,36,81,81,81,29.65,29.65,3,3,3,0.00
2013-5-25,41,41,41,36,36,36,81,81,81,29.65,29.65,3,3,3,0.00
2013-5-26,41,41,41,36,36,36,81,81,81,29.65,29.65,3,3,3,0.00
2013-5-27,41,41,41,36,36,36,81,81,81,29.65,29.65,3,3,3,0.00
2013-5-28,41,41,41,36,36,36,81,81,81,29.65,29.65,3,3,3,0.00
2013-5-29,41,41,41,36,36,36,81,81,81,29.65,29.65,3,3,3,0.00
2013-5-30,41,41,41,36,36,36,81,81,81,29.65,29.65,3,3,3,0.00
2013-5-31,55,47,40,23,19,15,49,35,20,29.82,29.68,7,2,18,0.00
2013-6-1,68,55,45,34,32,28,61,44,22,29.56,29.51,3,1,6,0.00
2013-6-2,81,61,35,37,27,16,79,38,9,29.55,28.99,9,2,20,0.00
2013-6-3,71,58,40,37,24,9,62,32,11,29.53,29.00,11,3,20,0.00
2013-6-4,69,54,31,33,26,20,74,40,16,29.59,29.47,9,2,17,0.00
2013-6-5,72,55,34,36,30,24,85,47,17,29.66,29.46,9,2,14,0.00
2013-6-6,76,58,36,37,32,27,80,44,17,29.62,29.43,9,2,14,0.00
2013-6-7,62,46,39,39,35,33,78,65,42,29.55,29.47,1,0,3,0.00
2013-6-8,76,65,50,37,33,30,57,33,19,29.49,29.34,7,2,18,0.00
2013-6-9,85,64,39,44,35,28,76,41,15,29.55,29.23,8,2,18,0.00
2013-6-10,87,71,51,43,29,10,63,28,7,29.32,29.07,10,1,20,0.00
2013-6-11,72,67,62,25,22,18,24,18,13,29.09,29.05,3,2,17,0.00
2013-6-14,66,56,42,34,30,26,63,40,23,29.63,29.52,7,2,13,0.00
2013-6-15,78,58,31,39,29,16,81,40,10,29.67,29.42,6,1,17,0.00
2013-6-16,82,68,36,34,23,10,75,25,7,29.58,29.38,9,2,20,0.00
2013-6-17,83,67,35,33,25,8,69,26,6,29.59,29.31,9,2,14,0.00
2013-6-18,82,68,37,31,22,7,69,24,6,29.43,29.07,7,1,20,0.00
2013-6-19,73,63,50,35,24,17,37,24,13,29.21,28.95,12,3,25,0.00
2013-6-20,64,62,50,33,28,25,51,27,23,29.51,29.42,6,4,16,0.00
2013-6-21,69,68,66,32,31,29,27,25,22,29.46,29.38,6,4,12,0.00
2013-6-22,67,60,39,35,29,24,77,32,21,29.55,29.45,9,4,22,0.00
2013-6-23,78,60,32,43,31,26,80,41,15,29.56,29.16,7,1,18,0.00
2013-6-24,76,66,55,42,33,25,62,32,16,29.30,29.12,7,2,24,0.00
2013-6-25,80,60,44,45,40,35,84,52,21,29.50,29.26,6,1,16,0.00
2013-6-26,84,75,49,47,42,38,70,34,22,29.50,29.40,7,2,18,0.00
2013-6-27,89,67,47,47,43,39,81,50,18,29.63,29.51,6,1,15,0.00
2013-6-28,93,79,49,49,40,31,79,30,12,29.65,29.44,6,1,12,0.00
2013-6-29,62,56,51,44,42,41,68,60,47,29.49,29.43,1,0,2,0.00
2013-7-1,93,80,52,45,39,29,66,27,11,29.57,29.34,5,2,10,0.00
2013-7-2,92,78,50,47,41,31,68,31,12,29.55,29.31,7,2,13,0.00
2013-7-3,87,76,52,50,46,43,72,37,25,29.45,29.24,7,1,16,0.00
2013-7-4,83,69,58,54,50,45,87,56,28,29.41,29.20,13,2,32,0.22
2013-7-5,82,73,62,52,48,44,68,42,26,29.34,29.17,7,2,14,0.26
2013-7-6,82,63,53,52,48,37,85,64,21,29.44,29.24,6,1,13,0.18
2013-7-7,81,66,55,51,47,40,81,55,26,29.49,29.29,16,2,26,0.18
2013-7-8,84,63,52,52,45,-100,87,60,20,29.55,29.40,12,1,22,0.00
2013-7-9,89,72,51,50,41,28,81,41,12,29.57,29.41,6,1,13,0.00
2013-7-10,91,71,45,43,31,-100,78,32,9,29.60,29.33,5,1,12,0.00
2013-7-11,84,67,53,50,44,37,72,47,20,29.47,29.29,12,1,29,0.00
2013-7-12,77,62,54,55,50,44,89,69,32,29.52,29.34,5,1,12,0.03
2013-7-13,82,67,56,55,50,42,82,59,25,29.56,29.35,12,2,24,0.02
2013-7-14,85,67,48,53,45,32,90,54,16,29.64,29.37,4,1,13,0.02
2013-7-15,89,69,51,51,45,38,80,48,18,29.47,29.25,9,1,14,0.00
2013-7-16,70,64,63,52,51,48,65,63,47,29.29,29.25,3,0,7,0.00
2013-7-17,63,63,63,51,51,51,65,65,65,29.26,29.26,0,0,0,0.00
2013-7-18,63,63,63,51,51,51,65,65,65,29.26,29.26,0,0,0,0.00
2013-7-19,89,72,63,51,44,28,65,45,11,29.44,29.26,5,0,8,0.00
2013-7-20,89,78,50,45,30,-100,68,21,9,29.48,29.29,5,1,12,0.00
2013-7-21,90,80,48,40,32,22,66,22,9,29.41,29.26,8,2,13,0.00
2013-7-22,90,80,49,40,32,16,62,22,7,29.43,29.31,6,2,13,0.00
2013-7-23,89,75,48,38,34,21,61,26,9,29.54,29.36,7,1,12,0.00
2013-7-24,79,71,60,48,45,41,62,40,26,29.49,29.41,13,4,25,0.00
2013-7-25,86,70,54,50,42,30,74,43,14,29.52,29.40,6,1,16,0.00
2013-7-26,88,68,48,43,36,26,73,39,11,29.64,29.41,6,1,16,0.00
2013-7-27,68,63,55,53,48,37,79,59,45,29.53,29.38,3,1,12,0.00
2013-7-28,77,63,50,52,47,41,88,61,29,29.45,29.31,10,1,18,0.00
2013-7-29,76,66,55,49,45,39,80,49,27,29.52,29.41,5,2,12,0.02
2013-7-30,84,67,52,48,41,28,74,43,13,29.63,29.48,7,1,14,0.01
2013-7-31,87,74,51,44,34,22,66,29,10,29.70,29.37,6,1,12,0.00
2013-8-1,86,72,51,50,44,38,61,39,19,29.42,29.15,14,6,25,0.00
2013-8-2,84,68,46,49,37,16,73,38,8,29.47,29.18,6,1,15,0.00
2013-8-3,86,73,50,39,28,19,56,22,9,29.50,29.35,6,1,20,0.00
2013-8-4,85,76,51,39,34,29,61,24,13,29.55,29.33,7,1,18,0.00
2013-8-5,85,72,50,41,35,28,67,30,13,29.51,29.32,9,2,24,0.00
2013-8-6,85,72,48,44,36,29,67,30,13,29.48,29.34,5,1,14,0.00
2013-8-7,83,69,46,40,36,29,66,32,14,29.52,29.33,15,3,24,0.00
2013-8-8,80,60,47,50,41,34,81,53,19,29.63,29.34,7,1,16,0.34
2013-8-9,80,60,42,47,40,29,88,52,16,29.61,29.41,12,3,24,0.01
2013-8-10,81,67,54,40,36,26,55,34,13,29.57,29.39,11,2,16,0.01
2013-8-11,78,69,50,43,35,28,64,31,16,29.58,29.38,7,2,16,0.00
2013-8-21,83,68,49,51,45,39,85,49,22,29.57,29.41,5,1,12,0.00
2013-8-22,76,65,52,59,48,42,76,56,30,29.65,29.43,9,2,21,0.06
2013-8-23,68,60,55,52,51,48,86,72,51,29.54,29.38,11,2,18,0.11
2013-8-24,76,58,46,54,45,-100,89,69,26,29.60,29.41,10,1,21,0.04
2013-8-25,75,66,50,47,45,41,78,48,30,29.67,29.44,9,3,13,0.02
2013-8-26,72,69,59,51,47,46,74,46,39,29.53,29.47,9,7,10,0.00
2013-8-27,72,61,54,52,50,48,85,69,44,29.57,29.46,4,1,10,0.00
2013-9-3,79,66,52,56,51,45,86,63,30,29.59,29.42,7,1,18,0.01
2013-9-4,82,64,49,53,48,45,90,64,27,29.67,29.52,6,1,12,0.00
2013-9-5,85,77,66,48,44,37,49,33,19,29.56,29.37,7,2,20,0.00
2013-9-6,85,69,55,49,44,34,73,45,16,29.55,29.34,9,1,22,0.00
2013-9-7,79,61,54,53,45,-100,88,63,31,29.67,29.41,7,1,18,0.27
2013-9-8,64,56,51,53,50,47,91,82,60,29.62,29.44,3,0,7,0.08
2013-9-9,74,59,46,51,45,40,91,65,32,29.55,29.37,5,1,12,0.02
2013-9-10,69,60,50,51,47,43,82,64,39,29.52,29.39,9,1,20,0.01
2013-9-11,70,60,54,54,50,47,89,71,45,29.54,29.44,12,2,20,0.01
2013-9-12,68,57,49,50,47,43,90,72,43,29.66,29.45,7,2,20,0.01
2013-9-13,62,55,49,52,50,45,89,83,66,29.55,29.38,5,1,12,0.01
2013-9-14,62,54,49,53,46,-100,92,79,62,29.48,29.39,6,1,12,0.01
2013-10-2,67,50,34,40,33,28,81,58,24,29.62,29.34,5,1,13,0.01
2013-10-3,45,38,32,39,28,18,87,66,46,29.67,29.23,10,3,21,0.13
2013-10-4,39,32,28,28,25,23,89,77,55,30.14,29.68,5,1,12,0.15
2013-10-5,47,33,20,28,21,-100,86,66,40,30.29,30.10,6,1,14,0.03
2013-10-6,64,43,23,30,25,19,85,56,24,30.22,29.86,5,1,12,0.01
2013-10-7,73,51,28,33,24,16,82,43,12,29.89,29.40,3,0,10,0.00
2013-10-8,60,52,37,27,23,16,60,34,18,29.45,29.32,8,2,16,0.00
2013-10-10,45,40,37,39,35,32,88,81,70,29.47,29.25,6,2,12,0.03
2013-10-11,49,39,28,34,28,21,86,67,35,29.78,29.47,5,2,13,0.01
2013-10-12,57,40,25,35,21,-100,82,55,23,29.84,29.47,5,1,10,0.00
2013-10-13,50,42,38,37,35,32,85,75,58,29.60,29.40,6,1,12,0.20
2013-10-14,38,37,36,34,32,31,86,83,79,29.75,29.58,5,3,12,0.24
2013-10-18,49,36,27,26,22,20,78,58,32,29.98,29.78,7,2,20,0.00
2013-10-19,54,38,20,26,15,-100,79,46,21,30.03,29.75,9,2,20,0.00
2013-10-20,54,44,27,24,20,17,66,39,24,29.81,29.61,10,3,18,0.00
2013-10-21,57,45,23,27,23,17,79,44,25,30.00,29.80,5,1,13,0.00
2013-10-22,63,49,25,27,24,18,79,40,19,30.05,29.77,5,1,13,0.00
2013-10-23,66,52,28,28,23,19,74,35,17,29.97,29.68,4,1,13,0.00
2013-10-24,65,53,29,26,22,18,70,34,18,29.94,29.67,5,1,14,0.00
2013-10-25,64,50,30,27,23,19,71,38,19,29.95,29.76,7,2,17,0.00
2013-10-26,62,50,34,19,13,-100,51,26,17,29.99,29.86,6,2,13,0.02
2013-10-27,63,53,29,28,19,11,62,28,13,29.81,29.14,10,2,18,0.02
2013-10-28,54,42,33,33,27,-100,88,60,25,29.33,28.97,21,6,32,0.12
2013-10-29,40,34,27,34,29,23,89,81,62,29.63,29.30,5,1,8,0.38
2013-10-30,38,31,24,31,25,21,88,80,61,29.75,29.61,8,2,16,0.06
2013-10-31,42,37,33,29,25,22,74,64,45,29.85,29.72,9,4,20,0.01
2013-11-1,49,41,29,33,28,23,79,62,40,29.95,29.76,8,3,17,0.05
2013-11-2,61,38,20,30,16,-100,83,51,13,29.93,29.49,2,1,7,0.01
2013-11-3,43,31,20,26,19,11,85,62,39,29.81,29.20,14,5,22,0.00
2013-11-4,31,24,18,18,14,10,79,66,48,29.86,29.75,7,1,13,0.00
2013-11-5,21,20,17,17,15,12,84,82,80,29.96,29.85,0,0,1,0.00
2013-11-7,55,37,24,28,22,18,80,59,27,30.16,29.58,7,1,12,0.02
2013-11-8,52,42,28,24,20,15,75,45,23,29.76,29.46,7,1,13,0.00
2013-11-9,57,42,25,27,17,-100,79,44,22,29.96,29.73,6,1,13,0.00
2013-11-10,59,44,24,25,19,14,77,41,17,30.08,29.83,3,1,10,0.00
2013-11-11,62,48,27,23,16,12,70,33,14,30.15,29.90,6,2,12,0.00
2013-11-12,64,47,24,22,17,11,71,35,13,30.34,29.97,5,1,16,0.00
2013-11-13,31,30,29,20,20,19,67,66,63,30.02,29.94,1,0,2,0.00
2013-12-16,45,30,14,18,14,8,78,56,27,30.39,30.16,6,1,12,0.04
2013-12-17,43,29,14,20,15,6,74,58,34,30.44,29.99,2,0,6,0.01
2013-12-18,47,32,15,26,18,9,78,59,28,29.98,29.30,1,0,3,0.01
2013-12-19,34,30,23,31,26,19,89,85,79,29.54,29.19,8,2,14,0.32
2013-12-20,26,20,16,20,14,9,83,77,63,29.73,29.56,6,2,15,0.02
2013-12-21,27,22,17,21,14,-100,82,77,72,29.87,29.54,10,2,17,0.02
2013-12-22,23,22,21,18,17,16,82,82,82,29.89,29.85,2,0,3,0.00